Time,TemperatureF,DewpointF,PressureIn,WindDirection,WindDirectionDegrees,WindSpeedMPH,WindSpeedGustMPH,Humidity,HourlyPrecipIn,Conditions,Clouds,dailyrainin,SolarRadiationWatts/m^2,SoftwareType,DateUTC
2013-01-23 00:00:00,48.9,43.3,30.22,SE,130,0.0,2.0,81,0.00,,---,0.00,0.00,VWS V14.00,2013-01-23 06:00:00,
2013-01-23 00:02:00,49.0,43.8,30.22,SE,130,0.0,0.0,82,0.00,,---,0.00,0.00,VWS V14.00,2013-01-23 06:02:00,
2013-01-23 00:06:00,48.5,43.6,30.22,SE,130,0.0,0.0,83,0.00,,---,0.00,0.00,VWS V14.00,2013-01-23 06:06:00,
2013-01-23 00:11:00,48.5,43.9,30.22,SE,130,0.0,0.0,84,0.00,,---,0.00,0.00,VWS V14.00,2013-01-23 06:11:00,
2013-01-23 00:15:00,48.5,43.6,30.21,SE,130,0.0,0.0,83,0.00,,---,0.00,0.00,VWS V14.00,2013-01-23 06:15:00,
2013-01-23 00:19:00,48.4,43.5,30.21,SE,130,0.0,0.0,83,0.00,,---,0.00,0.00,VWS V14.00,2013-01-23 06:19:00,
2013-01-23 00:23:00,48.5,43.6,30.21,SE,130,0.0,0.0,83,0.00,,---,0.00,0.00,VWS V14.00,2013-01-23 06:23:00,
2013-01-23 00:27:00,48.0,43.4,30.21,SE,130,0.0,0.0,84,0.00,,---,0.00,0.00,VWS V14.00,2013-01-23 06:27:00,
2013-01-23 00:30:00,47.7,43.1,30.21,SE,130,0.0,0.0,84,0.00,,---,0.00,0.00,VWS V14.00,2013-01-23 06:30:00,
2013-01-23 00:31:00,47.7,43.1,30.21,SE,130,0.0,0.0,84,0.00,,---,0.00,0.00,VWS V14.00,2013-01-23 06:31:00,
2013-01-23 00:39:00,47.4,42.8,30.21,SE,130,0.0,0.0,84,0.00,,---,0.00,0.00,VWS V14.00,2013-01-23 06:39:00,
2013-01-23 00:43:00,47.0,42.4,30.21,SE,130,0.0,0.0,84,0.00,,---,0.00,0.00,VWS V14.00,2013-01-23 06:43:00,
2013-01-23 00:47:00,46.6,42.3,30.21,SE,130,0.0,0.0,85,0.00,,---,0.00,0.00,VWS V14.00,2013-01-23 06:47:00,
2013-01-23 00:51:00,46.4,42.5,30.21,SE,130,0.0,0.0,86,0.00,,---,0.00,0.00,VWS V14.00,2013-01-23 06:51:00,
2013-01-23 00:55:00,46.3,42.3,30.21,SE,130,0.0,0.0,86,0.00,,---,0.00,0.00,VWS V14.00,2013-01-23 06:55:00,
2013-01-23 00:59:00,46.0,42.0,30.21,SE,130,0.0,0.0,86,0.00,,---,0.00,0.00,VWS V14.00,2013-01-23 06:59:00,
2013-01-23 01:00:00,46.0,42.0,30.21,SE,130,0.0,0.0,86,0.00,,---,0.00,0.00,VWS V14.00,2013-01-23 07:00:00,
2013-01-23 01:03:00,45.6,41.7,30.21,SE,130,0.0,0.0,86,0.00,,---,0.00,0.00,VWS V14.00,2013-01-23 07:03:00,
2013-01-23 01:07:00,45.4,41.8,30.21,SE,130,0.0,0.0,87,0.00,,---,0.00,0.00,VWS V14.00,2013-01-23 07:07:00,
2013-01-23 01:11:00,45.4,42.1,30.21,SE,130,0.0,0.0,88,0.00,,---,0.00,0.00,VWS V14.00,2013-01-23 07:11:00,
2013-01-23 01:15:00,45.5,42.2,30.21,SE,130,0.0,0.0,88,0.00,,---,0.00,0.00,VWS V14.00,2013-01-23 07:15:00,
2013-01-23 01:19:00,45.6,42.3,30.21,SE,130,0.0,0.0,88,0.00,,---,0.00,0.00,VWS V14.00,2013-01-23 07:19:00,
2013-01-23 01:23:00,45.4,42.3,30.21,SE,130,0.0,0.0,89,0.00,,---,0.00,0.00,VWS V14.00,2013-01-23 07:23:00,
2013-01-23 01:27:00,45.4,42.3,30.21,SE,130,0.0,0.0,89,0.00,,---,0.00,0.00,VWS V14.00,2013-01-23 07:27:00,
2013-01-23 01:31:00,45.1,42.1,30.22,SE,130,0.0,0.0,89,0.00,,---,0.00,0.00,VWS V14.00,2013-01-23 07:31:00,
2013-01-23 01:35:00,45.2,42.5,30.22,SE,130,0.0,0.0,90,0.00,,---,0.00,0.00,VWS V14.00,2013-01-23 07:35:00,
2013-01-23 01:39:00,45.2,42.5,30.22,SE,130,0.0,0.0,90,0.00,,---,0.00,0.00,VWS V14.00,2013-01-23 07:39:00,
2013-01-23 01:43:00,45.0,42.2,30.22,SE,130,0.0,0.0,90,0.00,,---,0.00,0.00,VWS V14.00,2013-01-23 07:43:00,
2013-01-23 01:47:00,45.0,42.2,30.22,SE,130,0.0,0.0,90,0.00,,---,0.00,0.00,VWS V14.00,2013-01-23 07:47:00,
2013-01-23 01:51:00,44.9,42.4,30.22,SE,130,0.0,0.0,91,0.00,,---,0.00,0.00,VWS V14.00,2013-01-23 07:51:00,
2013-01-23 02:00:00,44.8,42.6,30.22,SE,130,0.0,0.0,92,0.00,,---,0.00,0.00,VWS V14.00,2013-01-23 08:00:00,
2013-01-23 02:04:00,44.7,42.5,30.22,SE,130,0.0,0.0,92,0.00,,---,0.00,0.00,VWS V14.00,2013-01-23 08:04:00,
2013-01-23 02:08:00,44.6,42.4,30.22,SE,130,0.0,0.0,92,0.00,,---,0.00,0.00,VWS V14.00,2013-01-23 08:08:00,
2013-01-23 02:12:00,44.5,42.3,30.22,SE,130,0.0,0.0,92,0.00,,---,0.00,0.00,VWS V14.00,2013-01-23 08:12:00,
2013-01-23 02:16:00,44.3,42.1,30.22,SE,130,0.0,0.0,92,0.00,,---,0.00,0.00,VWS V14.00,2013-01-23 08:16:00,
2013-01-23 02:20:00,44.0,41.8,30.22,SE,130,0.0,0.0,92,0.00,,---,0.00,0.00,VWS V14.00,2013-01-23 08:20:00,
2013-01-23 02:24:00,43.8,41.6,30.22,SE,130,0.0,0.0,92,0.00,,---,0.00,0.00,VWS V14.00,2013-01-23 08:24:00,
2013-01-23 02:28:00,43.4,41.2,30.22,SE,130,0.0,0.0,92,0.00,,---,0.00,0.00,VWS V14.00,2013-01-23 08:28:00,
2013-01-23 02:30:00,43.2,41.0,30.22,SE,130,0.0,0.0,92,0.00,,---,0.00,0.00,VWS V14.00,2013-01-23 08:30:00,
2013-01-23 02:32:00,43.1,40.9,30.22,SE,130,0.0,0.0,92,0.00,,---,0.00,0.00,VWS V14.00,2013-01-23 08:32:00,
2013-01-23 02:36:00,42.9,40.7,30.22,SE,130,0.0,0.0,92,0.00,,---,0.00,0.00,VWS V14.00,2013-01-23 08:36:00,
2013-01-23 02:40:00,42.7,40.5,30.22,SE,130,0.0,0.0,92,0.00,,---,0.00,0.00,VWS V14.00,2013-01-23 08:40:00,
2013-01-23 02:44:00,42.5,40.3,30.22,SE,130,0.0,0.0,92,0.00,,---,0.00,0.00,VWS V14.00,2013-01-23 08:44:00,
2013-01-23 02:48:00,42.6,40.7,30.21,SE,130,0.0,0.0,93,0.00,,---,0.00,0.00,VWS V14.00,2013-01-23 08:48:00,
2013-01-23 02:52:00,42.5,40.6,30.21,SE,130,0.0,0.0,93,0.00,,---,0.00,0.00,VWS V14.00,2013-01-23 08:52:00,
2013-01-23 02:56:00,42.5,40.6,30.21,SE,130,0.0,0.0,93,0.00,,---,0.00,0.00,VWS V14.00,2013-01-23 08:56:00,
2013-01-23 03:00:00,42.7,40.8,30.21,SE,130,0.0,0.0,93,0.00,,---,0.00,0.00,VWS V14.00,2013-01-23 09:00:00,
2013-01-23 03:04:00,42.8,40.9,30.21,SE,130,0.0,0.0,93,0.00,,---,0.00,0.00,VWS V14.00,2013-01-23 09:04:00,
2013-01-23 03:08:00,43.1,41.2,30.21,SE,130,0.0,0.0,93,0.00,,---,0.00,0.00,VWS V14.00,2013-01-23 09:08:00,
2013-01-23 03:12:00,43.6,41.7,30.21,SE,130,0.0,0.0,93,0.00,,---,0.00,0.00,VWS V14.00,2013-01-23 09:12:00,
2013-01-23 03:16:00,44.2,42.6,30.21,SE,130,0.0,0.0,94,0.00,,---,0.00,0.00,VWS V14.00,2013-01-23 09:16:00,
2013-01-23 03:20:00,44.9,43.3,30.21,SE,130,0.0,0.0,94,0.00,,---,0.00,0.00,VWS V14.00,2013-01-23 09:20:00,
2013-01-23 03:24:00,45.2,43.6,30.21,SE,130,0.0,0.0,94,0.00,,---,0.00,0.00,VWS V14.00,2013-01-23 09:24:00,
2013-01-23 03:28:00,45.8,44.2,30.21,SE,130,0.0,0.0,94,0.00,,---,0.00,0.00,VWS V14.00,2013-01-23 09:28:00,
2013-01-23 03:30:00,46.1,44.5,30.21,SE,130,0.0,0.0,94,0.00,,---,0.00,0.00,VWS V14.00,2013-01-23 09:30:00,
2013-01-23 03:32:00,46.5,44.9,30.21,SE,130,0.0,0.0,94,0.00,,---,0.00,0.00,VWS V14.00,2013-01-23 09:32:00,
2013-01-23 03:36:00,47.0,45.1,30.21,SE,130,0.0,0.0,93,0.00,,---,0.00,0.00,VWS V14.00,2013-01-23 09:36:00,
2013-01-23 03:40:00,47.3,45.4,30.21,SE,130,0.0,0.0,93,0.00,,---,0.00,0.00,VWS V14.00,2013-01-23 09:40:00,
2013-01-23 03:44:00,47.6,45.7,30.22,SE,130,0.0,0.0,93,0.00,,---,0.00,0.00,VWS V14.00,2013-01-23 09:44:00,
2013-01-23 03:48:00,47.9,45.7,30.22,SE,130,0.0,0.0,92,0.00,,---,0.00,0.00,VWS V14.00,2013-01-23 09:48:00,
2013-01-23 03:52:00,47.9,45.7,30.22,SE,130,0.0,0.0,92,0.00,,---,0.00,0.00,VWS V14.00,2013-01-23 09:52:00,
2013-01-23 03:56:00,48.0,45.8,30.22,SE,130,0.0,0.0,92,0.00,,---,0.00,0.00,VWS V14.00,2013-01-23 09:56:00,
2013-01-23 04:00:00,48.0,45.8,30.22,SE,130,0.0,0.0,92,0.00,,---,0.00,0.00,VWS V14.00,2013-01-23 10:00:00,
2013-01-23 04:05:00,48.2,46.0,30.22,SE,130,0.0,0.0,92,0.00,,---,0.00,0.00,VWS V14.00,2013-01-23 10:05:00,
2013-01-23 04:09:00,48.3,46.1,30.22,SE,130,0.0,0.0,92,0.00,,---,0.00,0.00,VWS V14.00,2013-01-23 10:09:00,
2013-01-23 04:13:00,48.2,46.0,30.22,SE,130,0.0,0.0,92,0.00,,---,0.00,0.00,VWS V14.00,2013-01-23 10:13:00,
2013-01-23 04:17:00,48.2,45.7,30.22,SE,130,0.0,0.0,91,0.00,,---,0.00,0.00,VWS V14.00,2013-01-23 10:17:00,
2013-01-23 04:21:00,48.1,45.9,30.22,SE,130,0.0,0.0,92,0.00,,---,0.00,0.00,VWS V14.00,2013-01-23 10:21:00,
2013-01-23 04:29:00,47.9,45.7,30.22,SE,130,0.0,0.0,92,0.00,,---,0.00,0.00,VWS V14.00,2013-01-23 10:29:00,
2013-01-23 04:30:00,47.7,45.5,30.23,SE,130,0.0,0.0,92,0.00,,---,0.00,0.00,VWS V14.00,2013-01-23 10:30:00,
2013-01-23 04:33:00,47.4,44.9,30.23,SE,130,0.0,0.0,91,0.00,,---,0.00,0.00,VWS V14.00,2013-01-23 10:33:00,
2013-01-23 04:37:00,47.3,45.1,30.23,SE,130,0.0,0.0,92,0.00,,---,0.00,0.00,VWS V14.00,2013-01-23 10:37:00,
2013-01-23 04:41:00,47.3,45.4,30.23,SE,130,0.0,0.0,93,0.00,,---,0.00,0.00,VWS V14.00,2013-01-23 10:41:00,
2013-01-23 04:45:00,47.1,45.2,30.24,SE,130,0.0,0.0,93,0.00,,---,0.00,0.00,VWS V14.00,2013-01-23 10:45:00,
2013-01-23 04:53:00,47.1,45.5,30.24,SE,130,0.0,0.0,94,0.00,,---,0.00,0.00,VWS V14.00,2013-01-23 10:53:00,
2013-01-23 04:57:00,47.3,45.7,30.24,SE,130,0.0,0.0,94,0.00,,---,0.00,0.00,VWS V14.00,2013-01-23 10:57:00,
2013-01-23 05:00:00,47.3,45.7,30.24,SE,130,0.0,0.0,94,0.00,,---,0.00,0.00,VWS V14.00,2013-01-23 11:00:00,
2013-01-23 05:01:00,47.4,45.8,30.24,SE,130,0.0,0.0,94,0.00,,---,0.00,0.00,VWS V14.00,2013-01-23 11:01:00,
2013-01-23 05:05:00,47.4,45.8,30.24,SE,130,0.0,0.0,94,0.00,,---,0.00,0.00,VWS V14.00,2013-01-23 11:05:00,
2013-01-23 05:09:00,47.3,45.7,30.24,SE,130,0.0,0.0,94,0.00,,---,0.00,0.00,VWS V14.00,2013-01-23 11:09:00,
2013-01-23 05:13:00,47.2,45.6,30.24,SE,130,0.0,0.0,94,0.00,,---,0.00,0.00,VWS V14.00,2013-01-23 11:13:00,
2013-01-23 05:17:00,47.2,45.6,30.24,SE,130,0.0,0.0,94,0.00,,---,0.00,0.00,VWS V14.00,2013-01-23 11:17:00,
2013-01-23 05:21:00,47.2,45.6,30.24,SE,130,0.0,0.0,94,0.00,,---,0.00,0.00,VWS V14.00,2013-01-23 11:21:00,
2013-01-23 05:25:00,47.0,45.4,30.24,SE,130,0.0,0.0,94,0.00,,---,0.00,0.00,VWS V14.00,2013-01-23 11:25:00,
2013-01-23 05:30:00,46.5,44.9,30.23,SE,130,0.0,0.0,94,0.00,,---,0.00,0.00,VWS V14.00,2013-01-23 11:30:00,
2013-01-23 05:33:00,46.3,44.7,30.23,SE,130,0.0,0.0,94,0.00,,---,0.00,0.00,VWS V14.00,2013-01-23 11:33:00,
2013-01-23 05:37:00,46.0,44.4,30.23,SE,130,0.0,0.0,94,0.00,,---,0.00,0.00,VWS V14.00,2013-01-23 11:37:00,
2013-01-23 05:42:00,46.0,44.4,30.23,SE,130,0.0,0.0,94,0.00,,---,0.00,0.00,VWS V14.00,2013-01-23 11:42:00,
2013-01-23 05:46:00,46.2,44.6,30.24,SE,130,0.0,0.0,94,0.00,,---,0.00,0.00,VWS V14.00,2013-01-23 11:46:00,
2013-01-23 05:50:00,46.3,44.7,30.24,SE,130,0.0,0.0,94,0.00,,---,0.00,0.00,VWS V14.00,2013-01-23 11:50:00,
2013-01-23 05:54:00,46.5,44.9,30.24,SE,130,0.0,0.0,94,0.00,,---,0.00,0.00,VWS V14.00,2013-01-23 11:54:00,
2013-01-23 05:58:00,46.8,45.5,30.24,SE,130,0.0,0.0,95,0.00,,---,0.00,0.00,VWS V14.00,2013-01-23 11:58:00,
2013-01-23 06:00:00,47.1,45.7,30.24,SE,130,0.0,0.0,95,0.00,,---,0.00,0.00,VWS V14.00,2013-01-23 12:00:00,
2013-01-23 06:02:00,47.2,45.8,30.24,SE,130,0.0,0.0,95,0.00,,---,0.00,0.00,VWS V14.00,2013-01-23 12:02:00,
2013-01-23 06:06:00,47.5,46.1,30.24,SE,130,0.0,0.0,95,0.00,,---,0.00,0.00,VWS V14.00,2013-01-23 12:06:00,
2013-01-23 06:10:00,47.5,46.1,30.24,SE,130,0.0,0.0,95,0.00,,---,0.00,0.00,VWS V14.00,2013-01-23 12:10:00,
2013-01-23 06:14:00,47.7,46.1,30.24,SSW,200,0.0,1.0,94,0.00,,---,0.00,0.00,VWS V14.00,2013-01-23 12:14:00,
2013-01-23 06:18:00,47.9,46.3,30.24,SSW,200,0.0,1.0,94,0.00,,---,0.00,0.00,VWS V14.00,2013-01-23 12:18:00,
2013-01-23 06:22:00,47.9,46.3,30.24,SSW,200,0.0,1.0,94,0.00,,---,0.00,0.00,VWS V14.00,2013-01-23 12:22:00,
2013-01-23 06:26:00,47.7,46.1,30.24,SSW,200,0.0,1.0,94,0.00,,---,0.00,0.00,VWS V14.00,2013-01-23 12:26:00,
2013-01-23 06:30:00,47.6,46.0,30.24,SSW,200,0.0,1.0,94,0.00,,---,0.00,0.00,VWS V14.00,2013-01-23 12:30:00,
2013-01-23 06:34:00,47.9,46.3,30.24,SSW,200,0.0,0.0,94,0.00,,---,0.00,0.00,VWS V14.00,2013-01-23 12:34:00,
2013-01-23 06:38:00,48.0,46.4,30.24,SSW,200,0.0,0.0,94,0.00,,---,0.00,0.00,VWS V14.00,2013-01-23 12:38:00,
2013-01-23 06:42:00,47.8,46.2,30.24,SSW,200,0.0,0.0,94,0.00,,---,0.00,0.00,VWS V14.00,2013-01-23 12:42:00,
2013-01-23 06:46:00,47.6,46.0,30.25,SSW,200,0.0,0.0,94,0.00,,---,0.00,0.00,VWS V14.00,2013-01-23 12:46:00,
2013-01-23 06:50:00,47.7,46.1,30.25,SSW,200,0.0,0.0,94,0.00,,---,0.00,0.00,VWS V14.00,2013-01-23 12:50:00,
2013-01-23 06:54:00,47.8,46.2,30.25,SSW,200,0.0,0.0,94,0.00,,---,0.00,0.00,VWS V14.00,2013-01-23 12:54:00,
2013-01-23 06:58:00,47.9,46.3,30.25,SSW,200,0.0,0.0,94,0.00,,---,0.00,0.00,VWS V14.00,2013-01-23 12:58:00,
2013-01-23 07:00:00,48.0,46.4,30.25,SSW,200,0.0,0.0,94,0.00,,---,0.00,0.00,VWS V14.00,2013-01-23 13:00:00,
2013-01-23 07:02:00,48.1,46.5,30.25,SSW,200,0.0,0.0,94,0.00,,---,0.00,0.00,VWS V14.00,2013-01-23 13:02:00,
2013-01-23 07:06:00,48.0,46.4,30.25,SSW,200,0.0,0.0,94,0.00,,---,0.00,5.00,VWS V14.00,2013-01-23 13:06:00,
2013-01-23 07:10:00,47.8,46.2,30.25,SSW,200,0.0,0.0,94,0.00,,---,0.00,7.00,VWS V14.00,2013-01-23 13:10:00,
2013-01-23 07:14:00,47.6,46.0,30.25,SSW,200,0.0,0.0,94,0.00,,---,0.00,11.00,VWS V14.00,2013-01-23 13:14:00,
2013-01-23 07:18:00,47.8,46.2,30.25,SSW,200,0.0,0.0,94,0.00,,---,0.00,19.00,VWS V14.00,2013-01-23 13:18:00,
2013-01-23 07:22:00,48.1,46.7,30.25,SSW,200,0.0,0.0,95,0.00,,---,0.00,25.00,VWS V14.00,2013-01-23 13:22:00,
2013-01-23 07:26:00,48.5,47.1,30.25,SSW,200,0.0,0.0,95,0.00,,---,0.00,25.00,VWS V14.00,2013-01-23 13:26:00,
2013-01-23 07:30:00,48.5,46.9,30.25,SSW,200,0.0,0.0,94,0.00,,---,0.00,25.00,VWS V14.00,2013-01-23 13:30:00,
2013-01-23 07:34:00,48.5,46.9,30.25,SSW,200,0.0,0.0,94,0.00,,---,0.00,37.00,VWS V14.00,2013-01-23 13:34:00,
2013-01-23 07:38:00,48.8,47.2,30.25,SSW,200,0.0,0.0,94,0.00,,---,0.00,51.00,VWS V14.00,2013-01-23 13:38:00,
2013-01-23 07:42:00,49.3,47.7,30.25,SSW,200,0.0,0.0,94,0.00,,---,0.00,69.00,VWS V14.00,2013-01-23 13:42:00,
2013-01-23 07:46:00,49.8,48.2,30.25,SSW,200,0.0,0.0,94,0.00,,---,0.00,77.00,VWS V14.00,2013-01-23 13:46:00,
2013-01-23 07:50:00,50.1,48.2,30.25,SSW,200,0.0,3.0,93,0.00,,---,0.00,98.00,VWS V14.00,2013-01-23 13:50:00,
2013-01-23 07:54:00,50.5,48.6,30.25,SSW,194,1.0,3.0,93,0.00,,---,0.00,109.00,VWS V14.00,2013-01-23 13:54:00,
2013-01-23 07:58:00,50.8,48.6,30.25,SW,220,0.0,3.0,92,0.00,,---,0.00,120.00,VWS V14.00,2013-01-23 13:58:00,
2013-01-23 08:00:00,51.0,48.8,30.25,SSW,200,0.0,3.0,92,0.00,,---,0.00,125.00,VWS V14.00,2013-01-23 14:00:00,
2013-01-23 08:03:00,51.3,49.1,30.25,SSW,199,0.0,2.0,92,0.00,,---,0.00,134.00,VWS V14.00,2013-01-23 14:03:00,
2013-01-23 08:07:00,51.8,49.5,30.25,South,190,4.0,4.0,92,0.00,,---,0.00,141.00,VWS V14.00,2013-01-23 14:07:00,
2013-01-23 08:11:00,52.2,49.7,30.25,South,189,1.0,7.0,91,0.00,,---,0.00,153.00,VWS V14.00,2013-01-23 14:11:00,
2013-01-23 08:15:00,52.5,50.0,30.25,SSW,194,2.0,7.0,91,0.00,,---,0.00,163.00,VWS V14.00,2013-01-23 14:15:00,
2013-01-23 08:19:00,52.8,50.0,30.25,SSW,200,0.0,7.0,90,0.00,,---,0.00,158.00,VWS V14.00,2013-01-23 14:19:00,
2013-01-23 08:23:00,53.0,50.2,30.25,SSW,194,1.0,7.0,90,0.00,,---,0.00,153.00,VWS V14.00,2013-01-23 14:23:00,
2013-01-23 08:27:00,53.3,50.5,30.25,SSW,205,3.0,7.0,90,0.00,,---,0.00,149.00,VWS V14.00,2013-01-23 14:27:00,
2013-01-23 08:30:00,53.5,50.3,30.25,South,180,3.0,7.0,89,0.00,,---,0.00,135.00,VWS V14.00,2013-01-23 14:30:00,
2013-01-23 08:31:00,53.6,50.7,30.25,South,186,0.0,3.0,90,0.00,,---,0.00,216.00,VWS V14.00,2013-01-23 14:31:00,
2013-01-23 08:35:00,53.9,50.7,30.25,SSW,197,2.0,4.0,89,0.00,,---,0.00,258.00,VWS V14.00,2013-01-23 14:35:00,
2013-01-23 08:39:00,54.5,51.0,30.25,SSW,212,2.0,4.0,88,0.00,,---,0.00,281.00,VWS V14.00,2013-01-23 14:39:00,
2013-01-23 08:43:00,54.9,51.4,30.25,South,180,4.0,5.0,88,0.00,,---,0.00,281.00,VWS V14.00,2013-01-23 14:43:00,
2013-01-23 08:47:00,54.7,51.2,30.26,SSW,202,1.0,5.0,88,0.00,,---,0.00,151.00,VWS V14.00,2013-01-23 14:47:00,
2013-01-23 08:51:00,55.0,51.5,30.26,South,182,0.0,5.0,88,0.00,,---,0.00,315.00,VWS V14.00,2013-01-23 14:51:00,
2013-01-23 08:55:00,55.5,52.0,30.26,SW,236,4.0,9.0,88,0.00,,---,0.00,315.00,VWS V14.00,2013-01-23 14:55:00,
2013-01-23 08:59:00,55.9,52.1,30.26,WSW,245,2.0,9.0,87,0.00,,---,0.00,323.00,VWS V14.00,2013-01-23 14:59:00,
2013-01-23 09:00:00,55.9,52.1,30.26,SSW,205,6.0,13.0,87,0.00,,---,0.00,338.00,VWS V14.00,2013-01-23 15:00:00,
2013-01-23 09:03:00,56.1,52.6,30.26,SSW,210,5.0,9.0,88,0.00,,---,0.00,339.00,VWS V14.00,2013-01-23 15:03:00,
2013-01-23 09:07:00,56.5,53.0,30.26,SSW,192,9.0,10.0,88,0.00,,---,0.00,345.00,VWS V14.00,2013-01-23 15:07:00,
2013-01-23 09:11:00,56.8,53.0,30.26,South,188,4.0,10.0,87,0.00,,---,0.00,343.00,VWS V14.00,2013-01-23 15:11:00,
2013-01-23 09:15:00,57.0,53.2,30.25,SW,231,4.0,10.0,87,0.00,,---,0.00,341.00,VWS V14.00,2013-01-23 15:15:00,
2013-01-23 09:19:00,57.4,53.6,30.25,South,188,4.0,10.0,87,0.00,,---,0.00,353.00,VWS V14.00,2013-01-23 15:19:00,
2013-01-23 09:23:00,57.9,54.1,30.25,SSW,203,4.0,12.0,87,0.00,,---,0.00,369.00,VWS V14.00,2013-01-23 15:23:00,
2013-01-23 09:27:00,58.4,54.2,30.25,South,190,5.0,12.0,86,0.00,,---,0.00,376.00,VWS V14.00,2013-01-23 15:27:00,
2013-01-23 09:30:00,58.7,54.2,30.26,SW,221,4.0,13.0,85,0.00,,---,0.00,385.00,VWS V14.00,2013-01-23 15:30:00,
2013-01-23 09:31:00,58.9,54.4,30.26,SW,232,11.0,11.0,85,0.00,,---,0.00,388.00,VWS V14.00,2013-01-23 15:31:00,
2013-01-23 09:35:00,59.2,54.7,30.26,South,179,6.0,11.0,85,0.00,,---,0.00,397.00,VWS V14.00,2013-01-23 15:35:00,
2013-01-23 09:39:00,59.9,55.1,30.26,SSW,195,5.0,11.0,84,0.00,,---,0.00,404.00,VWS V14.00,2013-01-23 15:39:00,
2013-01-23 09:43:00,60.3,55.1,30.26,WSW,252,4.0,11.0,83,0.00,,---,0.00,415.00,VWS V14.00,2013-01-23 15:43:00,
2013-01-23 09:47:00,60.8,55.3,30.25,SW,232,4.0,11.0,82,0.00,,---,0.00,427.00,VWS V14.00,2013-01-23 15:47:00,
2013-01-23 09:51:00,61.6,55.7,30.25,SSW,199,9.0,11.0,81,0.00,,---,0.00,434.00,VWS V14.00,2013-01-23 15:51:00,
2013-01-23 09:55:00,61.8,55.6,30.25,SW,230,1.0,11.0,80,0.00,,---,0.00,443.00,VWS V14.00,2013-01-23 15:55:00,
2013-01-23 09:59:00,62.4,55.5,30.26,SSW,198,12.0,12.0,78,0.00,,---,0.00,454.00,VWS V14.00,2013-01-23 15:59:00,
2013-01-23 10:00:00,62.3,55.4,30.26,South,189,9.0,12.0,78,0.00,,---,0.00,455.00,VWS V14.00,2013-01-23 16:00:00,
2013-01-23 10:03:00,62.4,55.5,30.26,South,190,8.0,11.0,78,0.00,,---,0.00,459.00,VWS V14.00,2013-01-23 16:03:00,
2013-01-23 10:07:00,63.0,55.3,30.26,SSW,209,4.0,11.0,76,0.00,,---,0.00,468.00,VWS V14.00,2013-01-23 16:07:00,
2013-01-23 10:11:00,63.4,55.7,30.26,SSW,194,9.0,12.0,76,0.00,,---,0.00,482.00,VWS V14.00,2013-01-23 16:11:00,
2013-01-23 10:15:00,63.8,55.7,30.26,SW,217,7.0,12.0,75,0.00,,---,0.00,489.00,VWS V14.00,2013-01-23 16:15:00,
2013-01-23 10:19:00,64.2,55.8,30.26,SW,222,4.0,12.0,74,0.00,,---,0.00,496.00,VWS V14.00,2013-01-23 16:19:00,
2013-01-23 10:23:00,64.5,55.7,30.26,SSW,201,5.0,12.0,73,0.00,,---,0.00,508.00,VWS V14.00,2013-01-23 16:23:00,
2013-01-23 10:27:00,64.9,55.7,30.26,South,190,4.0,12.0,72,0.00,,---,0.00,515.00,VWS V14.00,2013-01-23 16:27:00,
2013-01-23 10:30:00,64.8,55.6,30.26,South,187,6.0,12.0,72,0.00,,---,0.00,517.00,VWS V14.00,2013-01-23 16:30:00,
2013-01-23 10:31:00,65.1,55.9,30.26,South,186,4.0,8.0,72,0.00,,---,0.00,522.00,VWS V14.00,2013-01-23 16:31:00,
2013-01-23 10:36:00,65.4,55.8,30.26,South,191,4.0,11.0,71,0.00,,---,0.00,531.00,VWS V14.00,2013-01-23 16:36:00,
2013-01-23 10:40:00,65.7,55.3,30.26,SSE,168,5.0,11.0,69,0.00,,---,0.00,538.00,VWS V14.00,2013-01-23 16:40:00,
2013-01-23 10:44:00,66.1,55.2,30.26,SSW,205,4.0,11.0,68,0.00,,---,0.00,554.00,VWS V14.00,2013-01-23 16:44:00,
2013-01-23 10:48:00,67.2,55.9,30.26,SW,235,1.0,11.0,67,0.00,,---,0.00,619.00,VWS V14.00,2013-01-23 16:48:00,
2013-01-23 10:52:00,67.1,54.5,30.26,SW,221,6.0,13.0,64,0.00,,---,0.00,309.00,VWS V14.00,2013-01-23 16:52:00,
2013-01-23 10:56:00,67.0,54.4,30.26,NW,304,5.0,13.0,64,0.00,,---,0.00,350.00,VWS V14.00,2013-01-23 16:56:00,
2013-01-23 11:00:00,68.3,55.2,30.26,SSW,196,5.0,13.0,63,0.00,,---,0.00,657.00,VWS V14.00,2013-01-23 17:00:00,
2013-01-23 11:04:00,67.8,53.9,30.26,SSW,199,6.0,9.0,61,0.00,,---,0.00,366.00,VWS V14.00,2013-01-23 17:04:00,
2013-01-23 11:08:00,67.3,54.3,30.26,SW,218,5.0,11.0,63,0.00,,---,0.00,366.00,VWS V14.00,2013-01-23 17:08:00,
2013-01-23 11:12:00,67.5,53.6,30.26,South,175,13.0,13.0,61,0.00,,---,0.00,635.00,VWS V14.00,2013-01-23 17:12:00,
2013-01-23 11:16:00,67.4,54.4,30.25,SSW,198,3.0,13.0,63,0.00,,---,0.00,494.00,VWS V14.00,2013-01-23 17:16:00,
2013-01-23 11:20:00,67.5,54.0,30.25,SW,214,8.0,13.0,62,0.00,,---,0.00,591.00,VWS V14.00,2013-01-23 17:20:00,
2013-01-23 11:24:00,68.1,54.6,30.25,South,181,3.0,15.0,62,0.00,,---,0.00,705.00,VWS V14.00,2013-01-23 17:24:00,
2013-01-23 11:28:00,68.9,54.5,30.25,SSW,205,4.0,15.0,60,0.00,,---,0.00,547.00,VWS V14.00,2013-01-23 17:28:00,
2013-01-23 11:30:00,68.9,54.0,30.25,SW,215,2.0,15.0,59,0.00,,---,0.00,431.00,VWS V14.00,2013-01-23 17:30:00,
2013-01-23 11:32:00,68.9,54.0,30.25,SSW,201,6.0,6.0,59,0.00,,---,0.00,431.00,VWS V14.00,2013-01-23 17:32:00,
2013-01-23 11:36:00,68.6,53.7,30.25,SSW,200,3.0,9.0,59,0.00,,---,0.00,403.00,VWS V14.00,2013-01-23 17:36:00,
2013-01-23 11:40:00,68.9,54.0,30.25,SSW,196,5.0,9.0,59,0.00,,---,0.00,462.00,VWS V14.00,2013-01-23 17:40:00,
2013-01-23 11:44:00,68.8,53.4,30.23,SSE,168,11.0,11.0,58,0.00,,---,0.00,615.00,VWS V14.00,2013-01-23 17:44:00,
2013-01-23 11:48:00,68.4,53.1,30.23,South,187,9.0,15.0,58,0.00,,---,0.00,587.00,VWS V14.00,2013-01-23 17:48:00,
2013-01-23 11:52:00,69.8,52.9,30.23,South,186,3.0,15.0,55,0.00,,---,0.00,582.00,VWS V14.00,2013-01-23 17:52:00,
2013-01-23 11:56:00,70.0,52.6,30.23,SW,235,9.0,15.0,54,0.00,,---,0.00,497.00,VWS V14.00,2013-01-23 17:56:00,
2013-01-23 12:00:00,69.7,52.3,30.22,South,180,10.0,15.0,54,0.00,,---,0.00,536.00,VWS V14.00,2013-01-23 18:00:00,
2013-01-23 12:04:00,69.0,52.7,30.22,SW,215,5.0,10.0,56,0.00,,---,0.00,497.00,VWS V14.00,2013-01-23 18:04:00,
2013-01-23 12:08:00,69.3,52.5,30.22,South,191,5.0,10.0,55,0.00,,---,0.00,446.00,VWS V14.00,2013-01-23 18:08:00,
2013-01-23 12:12:00,69.8,52.4,30.22,SW,228,5.0,10.0,54,0.00,,---,0.00,429.00,VWS V14.00,2013-01-23 18:12:00,
2013-01-23 12:16:00,69.8,52.4,30.22,South,186,5.0,10.0,54,0.00,,---,0.00,411.00,VWS V14.00,2013-01-23 18:16:00,
2013-01-23 12:20:00,68.9,52.1,30.22,SSW,206,4.0,10.0,55,0.00,,---,0.00,422.00,VWS V14.00,2013-01-23 18:20:00,
2013-01-23 12:24:00,69.4,52.0,30.22,SW,225,6.0,14.0,54,0.00,,---,0.00,424.00,VWS V14.00,2013-01-23 18:24:00,
2013-01-23 12:28:00,69.4,52.0,30.22,SW,223,6.0,14.0,54,0.00,,---,0.00,353.00,VWS V14.00,2013-01-23 18:28:00,
2013-01-23 12:30:00,69.4,52.0,30.22,SW,223,6.0,14.0,54,0.00,,---,0.00,353.00,VWS V14.00,2013-01-23 18:30:00,
2013-01-23 12:32:00,69.6,52.7,30.22,South,184,3.0,6.0,55,0.00,,---,0.00,401.00,VWS V14.00,2013-01-23 18:32:00,
2013-01-23 12:36:00,69.4,52.0,30.22,SSW,192,7.0,8.0,54,0.00,,---,0.00,352.00,VWS V14.00,2013-01-23 18:36:00,
2013-01-23 12:40:00,69.2,52.4,30.22,South,190,7.0,9.0,55,0.00,,---,0.00,343.00,VWS V14.00,2013-01-23 18:40:00,
2013-01-23 12:45:00,69.8,52.4,30.20,South,173,12.0,12.0,54,0.00,,---,0.00,346.00,VWS V14.00,2013-01-23 18:45:00,
2013-01-23 12:49:00,69.8,52.4,30.20,SSW,200,5.0,12.0,54,0.00,,---,0.00,461.00,VWS V14.00,2013-01-23 18:49:00,
2013-01-23 12:53:00,70.6,53.2,30.20,SW,236,6.0,12.0,54,0.00,,---,0.00,504.00,VWS V14.00,2013-01-23 18:53:00,
2013-01-23 12:57:00,71.2,52.7,30.20,SW,235,5.0,12.0,52,0.00,,---,0.00,728.00,VWS V14.00,2013-01-23 18:57:00,
2013-01-23 13:00:00,70.6,52.7,30.19,SSW,196,3.0,12.0,53,0.00,,---,0.00,557.00,VWS V14.00,2013-01-23 19:00:00,
2013-01-23 13:01:00,70.5,52.6,30.19,SW,217,5.0,5.0,53,0.00,,---,0.00,557.00,VWS V14.00,2013-01-23 19:01:00,
2013-01-23 13:05:00,70.5,53.1,30.19,South,175,4.0,7.0,54,0.00,,---,0.00,682.00,VWS V14.00,2013-01-23 19:05:00,
2013-01-23 13:09:00,70.6,53.2,30.19,SSW,213,4.0,9.0,54,0.00,,---,0.00,721.00,VWS V14.00,2013-01-23 19:09:00,
2013-01-23 13:13:00,71.6,53.1,30.19,SSW,198,8.0,10.0,52,0.00,,---,0.00,675.00,VWS V14.00,2013-01-23 19:13:00,
2013-01-23 13:17:00,71.5,53.5,30.18,SW,229,4.0,12.0,53,0.00,,---,0.00,664.00,VWS V14.00,2013-01-23 19:17:00,
2013-01-23 13:21:00,72.3,54.2,30.18,West,262,5.0,12.0,53,0.00,,---,0.00,638.00,VWS V14.00,2013-01-23 19:21:00,
2013-01-23 13:25:00,71.8,54.3,30.18,South,187,7.0,12.0,54,0.00,,---,0.00,656.00,VWS V14.00,2013-01-23 19:25:00,
2013-01-23 13:29:00,70.6,53.7,30.18,South,186,11.0,12.0,55,0.00,,---,0.00,617.00,VWS V14.00,2013-01-23 19:29:00,
2013-01-23 13:30:00,70.4,54.0,30.17,SSW,209,6.0,12.0,56,0.00,,---,0.00,592.00,VWS V14.00,2013-01-23 19:30:00,
2013-01-23 13:33:00,70.9,53.4,30.17,South,174,13.0,13.0,54,0.00,,---,0.00,566.00,VWS V14.00,2013-01-23 19:33:00,
2013-01-23 13:37:00,70.7,53.8,30.17,SSW,192,6.0,13.0,55,0.00,,---,0.00,561.00,VWS V14.00,2013-01-23 19:37:00,
2013-01-23 13:41:00,71.2,53.2,30.17,SSW,211,3.0,13.0,53,0.00,,---,0.00,548.00,VWS V14.00,2013-01-23 19:41:00,
2013-01-23 13:45:00,71.5,53.0,30.17,South,191,13.0,13.0,52,0.00,,---,0.00,545.00,VWS V14.00,2013-01-23 19:45:00,
2013-01-23 13:49:00,71.2,53.2,30.17,SSW,210,6.0,14.0,53,0.00,,---,0.00,536.00,VWS V14.00,2013-01-23 19:49:00,
2013-01-23 13:53:00,71.5,53.5,30.17,South,178,8.0,14.0,53,0.00,,---,0.00,529.00,VWS V14.00,2013-01-23 19:53:00,
2013-01-23 13:57:00,71.2,53.7,30.17,WSW,243,4.0,14.0,54,0.00,,---,0.00,517.00,VWS V14.00,2013-01-23 19:57:00,
2013-01-23 14:00:00,71.8,52.7,30.16,South,169,8.0,14.0,51,0.00,,---,0.00,506.00,VWS V14.00,2013-01-23 20:00:00,
2013-01-23 14:01:00,71.8,52.7,30.16,South,181,13.0,13.0,51,0.00,,---,0.00,508.00,VWS V14.00,2013-01-23 20:01:00,
2013-01-23 14:05:00,71.1,53.6,30.16,South,190,9.0,13.0,54,0.00,,---,0.00,504.00,VWS V14.00,2013-01-23 20:05:00,
2013-01-23 14:09:00,72.0,52.9,30.16,SW,234,2.0,13.0,51,0.00,,---,0.00,497.00,VWS V14.00,2013-01-23 20:09:00,
2013-01-23 14:13:00,72.4,53.3,30.16,SW,215,8.0,13.0,51,0.00,,---,0.00,490.00,VWS V14.00,2013-01-23 20:13:00,
2013-01-23 14:17:00,72.1,53.0,30.17,South,180,9.0,13.0,51,0.00,,---,0.00,478.00,VWS V14.00,2013-01-23 20:17:00,
2013-01-23 14:21:00,71.6,53.1,30.17,SW,218,5.0,13.0,52,0.00,,---,0.00,469.00,VWS V14.00,2013-01-23 20:21:00,
2013-01-23 14:25:00,72.2,53.6,30.17,SSE,168,10.0,13.0,52,0.00,,---,0.00,459.00,VWS V14.00,2013-01-23 20:25:00,
2013-01-23 14:29:00,72.3,53.2,30.16,South,181,6.0,13.0,51,0.00,,---,0.00,455.00,VWS V14.00,2013-01-23 20:29:00,
2013-01-23 14:30:00,72.3,53.2,30.16,SSW,194,1.0,13.0,51,0.00,,---,0.00,452.00,VWS V14.00,2013-01-23 20:30:00,
2013-01-23 14:33:00,72.5,53.4,30.16,WSW,245,3.0,5.0,51,0.00,,---,0.00,446.00,VWS V14.00,2013-01-23 20:33:00,
2013-01-23 14:37:00,72.6,53.5,30.16,SSE,154,7.0,11.0,51,0.00,,---,0.00,439.00,VWS V14.00,2013-01-23 20:37:00,
2013-01-23 14:41:00,72.8,53.1,30.16,South,186,11.0,12.0,50,0.00,,---,0.00,425.00,VWS V14.00,2013-01-23 20:41:00,
2013-01-23 14:45:00,72.0,52.9,30.15,SSW,193,4.0,14.0,51,0.00,,---,0.00,415.00,VWS V14.00,2013-01-23 20:45:00,
2013-01-23 14:49:00,72.0,53.4,30.15,South,173,4.0,14.0,52,0.00,,---,0.00,408.00,VWS V14.00,2013-01-23 20:49:00,
2013-01-23 14:53:00,71.6,53.1,30.15,SW,227,4.0,14.0,52,0.00,,---,0.00,397.00,VWS V14.00,2013-01-23 20:53:00,
2013-01-23 14:57:00,72.0,52.9,30.15,SW,232,5.0,14.0,51,0.00,,---,0.00,387.00,VWS V14.00,2013-01-23 20:57:00,
2013-01-23 15:00:00,72.4,52.7,30.15,SW,221,5.0,14.0,50,0.00,,---,0.00,381.00,VWS V14.00,2013-01-23 21:00:00,
2013-01-23 15:01:00,72.4,52.7,30.15,SW,226,3.0,15.0,50,0.00,,---,0.00,378.00,VWS V14.00,2013-01-23 21:01:00,
2013-01-23 15:05:00,72.3,52.6,30.15,SW,215,13.0,15.0,50,0.00,,---,0.00,369.00,VWS V14.00,2013-01-23 21:05:00,
2013-01-23 15:10:00,72.1,53.0,30.15,West,281,5.0,15.0,51,0.00,,---,0.00,357.00,VWS V14.00,2013-01-23 21:10:00,
2013-01-23 15:14:00,72.4,52.7,30.15,SW,219,5.0,15.0,50,0.00,,---,0.00,350.00,VWS V14.00,2013-01-23 21:14:00,
2013-01-23 15:18:00,72.0,52.4,30.15,SSW,205,6.0,15.0,50,0.00,,---,0.00,336.00,VWS V14.00,2013-01-23 21:18:00,
2013-01-23 15:22:00,72.1,52.5,30.15,SSW,193,5.0,15.0,50,0.00,,---,0.00,322.00,VWS V14.00,2013-01-23 21:22:00,
2013-01-23 15:26:00,72.2,52.5,30.15,SSE,163,5.0,15.0,50,0.00,,---,0.00,313.00,VWS V14.00,2013-01-23 21:26:00,
2013-01-23 15:30:00,71.9,52.8,30.15,SSW,200,4.0,15.0,51,0.00,,---,0.00,309.00,VWS V14.00,2013-01-23 21:30:00,
2013-01-23 15:34:00,72.2,52.0,30.15,SSW,194,7.0,9.0,49,0.00,,---,0.00,288.00,VWS V14.00,2013-01-23 21:34:00,
2013-01-23 15:38:00,72.1,52.5,30.15,West,259,3.0,9.0,50,0.00,,---,0.00,279.00,VWS V14.00,2013-01-23 21:38:00,
2013-01-23 15:42:00,72.1,53.0,30.15,SW,219,10.0,13.0,51,0.00,,---,0.00,265.00,VWS V14.00,2013-01-23 21:42:00,
2013-01-23 15:46:00,71.8,52.7,30.15,SSW,206,2.0,13.0,51,0.00,,---,0.00,255.00,VWS V14.00,2013-01-23 21:46:00,
2013-01-23 15:50:00,71.4,52.9,30.15,SSW,211,7.0,13.0,52,0.00,,---,0.00,241.00,VWS V14.00,2013-01-23 21:50:00,
2013-01-23 15:54:00,71.7,52.6,30.15,SSW,205,2.0,13.0,51,0.00,,---,0.00,229.00,VWS V14.00,2013-01-23 21:54:00,
2013-01-23 15:58:00,71.7,53.2,30.15,SSW,197,3.0,13.0,52,0.00,,---,0.00,220.00,VWS V14.00,2013-01-23 21:58:00,
2013-01-23 16:00:00,71.8,53.2,30.15,SW,221,6.0,13.0,52,0.00,,---,0.00,211.00,VWS V14.00,2013-01-23 22:00:00,
2013-01-23 16:02:00,71.9,53.3,30.15,SW,225,2.0,7.0,52,0.00,,---,0.00,206.00,VWS V14.00,2013-01-23 22:02:00,
2013-01-23 16:06:00,71.5,53.0,30.15,SW,227,6.0,7.0,52,0.00,,---,0.00,178.00,VWS V14.00,2013-01-23 22:06:00,
2013-01-23 16:10:00,71.2,53.2,30.15,SSW,204,4.0,9.0,53,0.00,,---,0.00,113.00,VWS V14.00,2013-01-23 22:10:00,
2013-01-23 16:14:00,70.5,53.1,30.15,SSW,198,2.0,9.0,54,0.00,,---,0.00,100.00,VWS V14.00,2013-01-23 22:14:00,
2013-01-23 16:18:00,70.5,53.1,30.15,South,173,6.0,9.0,54,0.00,,---,0.00,76.00,VWS V14.00,2013-01-23 22:18:00,
2013-01-23 16:22:00,70.8,53.3,30.15,West,280,5.0,9.0,54,0.00,,---,0.00,109.00,VWS V14.00,2013-01-23 22:22:00,
2013-01-23 16:26:00,70.4,53.0,30.15,SSW,209,5.0,9.0,54,0.00,,---,0.00,84.00,VWS V14.00,2013-01-23 22:26:00,
2013-01-23 16:30:00,69.7,52.8,30.15,SW,229,2.0,9.0,55,0.00,,---,0.00,88.00,VWS V14.00,2013-01-23 22:30:00,
2013-01-23 16:34:00,69.5,53.1,30.15,SSE,167,4.0,5.0,56,0.00,,---,0.00,86.00,VWS V14.00,2013-01-23 22:34:00,
2013-01-23 16:38:00,69.1,53.2,30.15,SSW,203,8.0,8.0,57,0.00,,---,0.00,90.00,VWS V14.00,2013-01-23 22:38:00,
2013-01-23 16:42:00,69.2,53.3,30.15,SSW,204,3.0,10.0,57,0.00,,---,0.00,53.00,VWS V14.00,2013-01-23 22:42:00,
2013-01-23 16:46:00,69.1,53.2,30.14,SSW,199,5.0,10.0,57,0.00,,---,0.00,28.00,VWS V14.00,2013-01-23 22:46:00,
2013-01-23 16:50:00,68.5,53.2,30.14,SSW,200,3.0,10.0,58,0.00,,---,0.00,28.00,VWS V14.00,2013-01-23 22:50:00,
2013-01-23 16:54:00,68.4,53.1,30.14,South,190,5.0,11.0,58,0.00,,---,0.00,23.00,VWS V14.00,2013-01-23 22:54:00,
2013-01-23 16:58:00,68.0,53.2,30.14,South,187,4.0,11.0,59,0.00,,---,0.00,21.00,VWS V14.00,2013-01-23 22:58:00,
2013-01-23 17:00:00,67.8,53.0,30.14,South,180,4.0,11.0,59,0.00,,---,0.00,19.00,VWS V14.00,2013-01-23 23:00:00,
2013-01-23 17:02:00,67.7,53.3,30.14,SSW,196,4.0,4.0,60,0.00,,---,0.00,18.00,VWS V14.00,2013-01-23 23:02:00,
2013-01-23 17:06:00,67.6,53.2,30.14,South,181,10.0,10.0,60,0.00,,---,0.00,16.00,VWS V14.00,2013-01-23 23:06:00,
2013-01-23 17:10:00,67.8,53.4,30.14,SSW,197,5.0,10.0,60,0.00,,---,0.00,14.00,VWS V14.00,2013-01-23 23:10:00,
2013-01-23 17:14:00,67.3,53.4,30.13,South,174,6.0,10.0,61,0.00,,---,0.00,11.00,VWS V14.00,2013-01-23 23:14:00,
2013-01-23 17:18:00,67.2,53.3,30.13,South,180,6.0,10.0,61,0.00,,---,0.00,9.00,VWS V14.00,2013-01-23 23:18:00,
2013-01-23 17:22:00,67.2,53.8,30.13,SSW,194,4.0,10.0,62,0.00,,---,0.00,7.00,VWS V14.00,2013-01-23 23:22:00,
2013-01-23 17:26:00,66.7,53.7,30.13,SSW,192,5.0,10.0,63,0.00,,---,0.00,5.00,VWS V14.00,2013-01-23 23:26:00,
2013-01-23 17:30:00,66.4,53.4,30.13,SSW,192,2.0,10.0,63,0.00,,---,0.00,5.00,VWS V14.00,2013-01-23 23:30:00,
2013-01-23 17:31:00,66.3,53.3,30.13,SSW,192,2.0,2.0,63,0.00,,---,0.00,5.00,VWS V14.00,2013-01-23 23:31:00,
2013-01-23 17:35:00,65.6,53.5,30.13,South,185,3.0,4.0,65,0.00,,---,0.00,0.00,VWS V14.00,2013-01-23 23:35:00,
2013-01-23 17:39:00,65.8,53.7,30.13,South,178,5.0,7.0,65,0.00,,---,0.00,0.00,VWS V14.00,2013-01-23 23:39:00,
2013-01-23 17:43:00,65.6,53.5,30.13,South,185,1.0,7.0,65,0.00,,---,0.00,0.00,VWS V14.00,2013-01-23 23:43:00,
2013-01-23 17:47:00,64.6,53.0,30.13,South,185,1.0,7.0,66,0.00,,---,0.00,0.00,VWS V14.00,2013-01-23 23:47:00,
2013-01-23 17:51:00,63.8,53.0,30.13,South,184,3.0,7.0,68,0.00,,---,0.00,0.00,VWS V14.00,2013-01-23 23:51:00,
2013-01-23 17:55:00,63.6,52.9,30.13,South,184,3.0,7.0,68,0.00,,---,0.00,0.00,VWS V14.00,2013-01-23 23:55:00,
2013-01-23 17:59:00,62.4,52.5,30.13,South,184,3.0,7.0,70,0.00,,---,0.00,0.00,VWS V14.00,2013-01-23 23:59:00,
2013-01-23 18:00:00,62.2,52.3,30.13,South,184,3.0,7.0,70,0.00,,---,0.00,0.00,VWS V14.00,2013-01-24 00:00:00,
2013-01-23 18:03:00,62.1,52.6,30.13,South,184,4.0,4.0,71,0.00,,---,0.00,0.00,VWS V14.00,2013-01-24 00:03:00,
2013-01-23 18:07:00,62.7,53.2,30.13,SSW,192,2.0,4.0,71,0.00,,---,0.00,0.00,VWS V14.00,2013-01-24 00:07:00,
2013-01-23 18:11:00,62.1,52.6,30.13,SSW,192,1.0,4.0,71,0.00,,---,0.00,0.00,VWS V14.00,2013-01-24 00:11:00,
2013-01-23 18:15:00,61.7,52.6,30.14,SSW,192,0.0,4.0,72,0.00,,---,0.00,0.00,VWS V14.00,2013-01-24 00:15:00,
2013-01-23 18:19:00,61.5,52.8,30.14,SSW,192,0.0,4.0,73,0.00,,---,0.00,0.00,VWS V14.00,2013-01-24 00:19:00,
2013-01-23 18:23:00,61.4,52.7,30.14,SSW,192,0.0,4.0,73,0.00,,---,0.00,0.00,VWS V14.00,2013-01-24 00:23:00,
2013-01-23 18:27:00,61.5,52.8,30.14,SSW,192,0.0,4.0,73,0.00,,---,0.00,0.00,VWS V14.00,2013-01-24 00:27:00,
2013-01-23 18:30:00,61.3,52.6,30.14,SSW,192,0.0,4.0,73,0.00,,---,0.00,0.00,VWS V14.00,2013-01-24 00:30:00,
2013-01-23 18:31:00,61.4,52.7,30.14,SSW,192,0.0,0.0,73,0.00,,---,0.00,0.00,VWS V14.00,2013-01-24 00:31:00,
2013-01-23 18:35:00,61.6,52.9,30.14,SSW,192,0.0,0.0,73,0.00,,---,0.00,0.00,VWS V14.00,2013-01-24 00:35:00,
2013-01-23 18:39:00,61.7,52.6,30.14,SSW,192,0.0,0.0,72,0.00,,---,0.00,0.00,VWS V14.00,2013-01-24 00:39:00,
2013-01-23 18:43:00,61.6,52.5,30.14,SSW,192,0.0,0.0,72,0.00,,---,0.00,0.00,VWS V14.00,2013-01-24 00:43:00,
2013-01-23 18:47:00,61.4,52.7,30.14,SSW,192,0.0,0.0,73,0.00,,---,0.00,0.00,VWS V14.00,2013-01-24 00:47:00,
2013-01-23 18:51:00,61.4,52.7,30.14,SSW,192,0.0,0.0,73,0.00,,---,0.00,0.00,VWS V14.00,2013-01-24 00:51:00,
2013-01-23 18:55:00,61.2,52.5,30.14,SSW,192,0.0,0.0,73,0.00,,---,0.00,0.00,VWS V14.00,2013-01-24 00:55:00,
2013-01-23 18:59:00,60.8,52.5,30.14,SSW,192,0.0,0.0,74,0.00,,---,0.00,0.00,VWS V14.00,2013-01-24 00:59:00,
2013-01-23 19:00:00,60.7,52.4,30.14,SSW,192,0.0,0.0,74,0.00,,---,0.00,0.00,VWS V14.00,2013-01-24 01:00:00,
2013-01-23 19:03:00,60.7,52.4,30.14,SSW,192,0.0,0.0,74,0.00,,---,0.00,0.00,VWS V14.00,2013-01-24 01:03:00,
2013-01-23 19:07:00,61.0,52.7,30.14,SSW,192,0.0,0.0,74,0.00,,---,0.00,0.00,VWS V14.00,2013-01-24 01:07:00,
2013-01-23 19:11:00,60.4,52.1,30.14,SSW,192,0.0,0.0,74,0.00,,---,0.00,0.00,VWS V14.00,2013-01-24 01:11:00,
2013-01-23 19:15:00,59.1,51.5,30.14,SSW,192,0.0,0.0,76,0.00,,---,0.00,0.00,VWS V14.00,2013-01-24 01:15:00,
2013-01-23 19:19:00,58.1,51.6,30.14,SSW,192,0.0,0.0,79,0.00,,---,0.00,0.00,VWS V14.00,2013-01-24 01:19:00,
2013-01-23 19:23:00,58.0,51.5,30.14,SSW,192,0.0,0.0,79,0.00,,---,0.00,0.00,VWS V14.00,2013-01-24 01:23:00,
2013-01-23 19:27:00,58.0,51.5,30.14,SSW,192,0.0,0.0,79,0.00,,---,0.00,0.00,VWS V14.00,2013-01-24 01:27:00,
2013-01-23 19:30:00,58.2,51.7,30.14,SSW,192,0.0,0.0,79,0.00,,---,0.00,0.00,VWS V14.00,2013-01-24 01:30:00,
2013-01-23 19:31:00,58.4,51.9,30.14,SSW,192,0.0,0.0,79,0.00,,---,0.00,0.00,VWS V14.00,2013-01-24 01:31:00,
2013-01-23 19:35:00,58.5,52.0,30.14,SSW,192,0.0,0.0,79,0.00,,---,0.00,0.00,VWS V14.00,2013-01-24 01:35:00,
2013-01-23 19:39:00,58.6,51.8,30.14,SSW,192,0.0,0.0,78,0.00,,---,0.00,0.00,VWS V14.00,2013-01-24 01:39:00,
2013-01-23 19:43:00,58.9,51.7,30.14,SSW,192,0.0,0.0,77,0.00,,---,0.00,0.00,VWS V14.00,2013-01-24 01:43:00,
2013-01-23 19:47:00,57.1,50.7,30.14,SSW,192,0.0,0.0,79,0.00,,---,0.00,0.00,VWS V14.00,2013-01-24 01:47:00,
2013-01-23 19:52:00,55.4,50.0,30.14,SSW,192,0.0,0.0,82,0.00,,---,0.00,0.00,VWS V14.00,2013-01-24 01:52:00,
2013-01-23 19:56:00,54.7,50.0,30.14,SSW,192,0.0,0.0,84,0.00,,---,0.00,0.00,VWS V14.00,2013-01-24 01:56:00,
2013-01-23 20:00:00,54.8,50.4,30.14,SSW,192,0.0,0.0,85,0.00,,---,0.00,0.00,VWS V14.00,2013-01-24 02:00:00,
2013-01-23 20:04:00,54.8,50.1,30.14,SSW,192,0.0,0.0,84,0.00,,---,0.00,0.00,VWS V14.00,2013-01-24 02:04:00,
2013-01-23 20:08:00,54.7,50.3,30.14,SSW,192,0.0,0.0,85,0.00,,---,0.00,0.00,VWS V14.00,2013-01-24 02:08:00,
2013-01-23 20:12:00,54.9,50.5,30.14,SSW,192,0.0,0.0,85,0.00,,---,0.00,0.00,VWS V14.00,2013-01-24 02:12:00,
2013-01-23 20:16:00,55.0,50.6,30.14,SSW,192,0.0,0.0,85,0.00,,---,0.00,0.00,VWS V14.00,2013-01-24 02:16:00,
2013-01-23 20:20:00,55.1,50.7,30.14,SSW,192,0.0,0.0,85,0.00,,---,0.00,0.00,VWS V14.00,2013-01-24 02:20:00,
2013-01-23 20:24:00,55.5,50.8,30.14,SSW,192,0.0,0.0,84,0.00,,---,0.00,0.00,VWS V14.00,2013-01-24 02:24:00,
2013-01-23 20:28:00,55.1,50.4,30.14,SSW,192,0.0,0.0,84,0.00,,---,0.00,0.00,VWS V14.00,2013-01-24 02:28:00,
2013-01-23 20:30:00,54.6,49.9,30.14,SSW,192,0.0,0.0,84,0.00,,---,0.00,0.00,VWS V14.00,2013-01-24 02:30:00,
2013-01-23 20:32:00,54.2,49.8,30.14,SSW,192,0.0,0.0,85,0.00,,---,0.00,0.00,VWS V14.00,2013-01-24 02:32:00,
2013-01-23 20:36:00,53.5,49.1,30.14,SSW,192,0.0,0.0,85,0.00,,---,0.00,0.00,VWS V14.00,2013-01-24 02:36:00,
2013-01-23 20:40:00,53.5,49.7,30.14,SSW,192,0.0,0.0,87,0.00,,---,0.00,0.00,VWS V14.00,2013-01-24 02:40:00,
2013-01-23 20:44:00,54.4,50.6,30.16,SSW,192,0.0,0.0,87,0.00,,---,0.00,0.00,VWS V14.00,2013-01-24 02:44:00,
2013-01-23 20:48:00,54.8,50.4,30.16,SSW,192,0.0,0.0,85,0.00,,---,0.00,0.00,VWS V14.00,2013-01-24 02:48:00,
2013-01-23 20:52:00,55.0,50.6,30.16,SSW,192,0.0,0.0,85,0.00,,---,0.00,0.00,VWS V14.00,2013-01-24 02:52:00,
2013-01-23 20:56:00,54.7,50.0,30.16,SSW,192,0.0,0.0,84,0.00,,---,0.00,0.00,VWS V14.00,2013-01-24 02:56:00,
2013-01-23 21:00:00,53.9,49.5,30.16,SSW,192,0.0,0.0,85,0.00,,---,0.00,0.00,VWS V14.00,2013-01-24 03:00:00,
2013-01-23 21:04:00,54.0,49.9,30.16,SSW,192,0.0,0.0,86,0.00,,---,0.00,0.00,VWS V14.00,2013-01-24 03:04:00,
2013-01-23 21:08:00,53.9,49.8,30.16,SSW,192,0.0,0.0,86,0.00,,---,0.00,0.00,VWS V14.00,2013-01-24 03:08:00,
2013-01-23 21:12:00,53.5,49.4,30.16,SSW,192,0.0,0.0,86,0.00,,---,0.00,0.00,VWS V14.00,2013-01-24 03:12:00,
2013-01-23 21:16:00,53.5,50.0,30.15,SSW,192,0.0,0.0,88,0.00,,---,0.00,0.00,VWS V14.00,2013-01-24 03:16:00,
2013-01-23 21:20:00,53.6,49.8,30.15,SSW,192,0.0,0.0,87,0.00,,---,0.00,0.00,VWS V14.00,2013-01-24 03:20:00,
2013-01-23 21:24:00,52.8,49.0,30.15,SSW,192,0.0,0.0,87,0.00,,---,0.00,0.00,VWS V14.00,2013-01-24 03:24:00,
2013-01-23 21:28:00,52.1,48.7,30.15,SSW,192,0.0,0.0,88,0.00,,---,0.00,0.00,VWS V14.00,2013-01-24 03:28:00,
2013-01-23 21:30:00,51.8,48.4,30.15,SSW,192,0.0,0.0,88,0.00,,---,0.00,0.00,VWS V14.00,2013-01-24 03:30:00,
2013-01-23 21:32:00,51.6,48.5,30.15,SSW,192,0.0,0.0,89,0.00,,---,0.00,0.00,VWS V14.00,2013-01-24 03:32:00,
2013-01-23 21:36:00,51.7,48.6,30.15,SSW,192,0.0,0.0,89,0.00,,---,0.00,0.00,VWS V14.00,2013-01-24 03:36:00,
2013-01-23 21:40:00,52.1,49.3,30.15,SSW,192,0.0,0.0,90,0.00,,---,0.00,0.00,VWS V14.00,2013-01-24 03:40:00,
2013-01-23 21:44:00,54.1,50.9,30.15,SSW,192,0.0,0.0,89,0.00,,---,0.00,0.00,VWS V14.00,2013-01-24 03:44:00,
2013-01-23 21:48:00,55.5,51.4,30.15,SSW,192,0.0,0.0,86,0.00,,---,0.00,0.00,VWS V14.00,2013-01-24 03:48:00,
2013-01-23 21:53:00,56.0,51.6,30.15,SSW,192,0.0,0.0,85,0.00,,---,0.00,0.00,VWS V14.00,2013-01-24 03:53:00,
2013-01-23 21:57:00,55.7,50.3,30.15,SSW,192,0.0,0.0,82,0.00,,---,0.00,0.00,VWS V14.00,2013-01-24 03:57:00,
2013-01-23 22:00:00,54.1,49.7,30.15,SSW,192,0.0,0.0,85,0.00,,---,0.00,0.00,VWS V14.00,2013-01-24 04:00:00,
2013-01-23 22:01:00,53.9,49.5,30.15,SSW,192,0.0,0.0,85,0.00,,---,0.00,0.00,VWS V14.00,2013-01-24 04:01:00,
2013-01-23 22:05:00,52.6,48.8,30.15,SSW,192,0.0,0.0,87,0.00,,---,0.00,0.00,VWS V14.00,2013-01-24 04:05:00,
2013-01-23 22:09:00,52.5,49.4,30.15,SSW,192,0.0,0.0,89,0.00,,---,0.00,0.00,VWS V14.00,2013-01-24 04:09:00,
2013-01-23 22:13:00,52.6,49.2,30.15,SSW,192,0.0,0.0,88,0.00,,---,0.00,0.00,VWS V14.00,2013-01-24 04:13:00,
2013-01-23 22:17:00,52.3,48.9,30.15,SSW,192,0.0,0.0,88,0.00,,---,0.00,0.00,VWS V14.00,2013-01-24 04:17:00,
2013-01-23 22:21:00,51.6,48.5,30.15,SSW,192,0.0,0.0,89,0.00,,---,0.00,0.00,VWS V14.00,2013-01-24 04:21:00,
2013-01-23 22:25:00,51.1,48.0,30.15,SSW,192,0.0,0.0,89,0.00,,---,0.00,0.00,VWS V14.00,2013-01-24 04:25:00,
2013-01-23 22:29:00,51.9,49.4,30.14,SSW,192,0.0,0.0,91,0.00,,---,0.00,0.00,VWS V14.00,2013-01-24 04:29:00,
2013-01-23 22:30:00,52.1,49.6,30.14,SSW,192,0.0,0.0,91,0.00,,---,0.00,0.00,VWS V14.00,2013-01-24 04:30:00,
2013-01-23 22:33:00,52.8,50.0,30.14,SSW,192,0.0,0.0,90,0.00,,---,0.00,0.00,VWS V14.00,2013-01-24 04:33:00,
2013-01-23 22:37:00,53.9,50.7,30.14,SSW,192,0.0,0.0,89,0.00,,---,0.00,0.00,VWS V14.00,2013-01-24 04:37:00,
2013-01-23 22:41:00,54.6,50.8,30.14,SSW,192,0.0,0.0,87,0.00,,---,0.00,0.00,VWS V14.00,2013-01-24 04:41:00,
2013-01-23 22:45:00,55.0,51.2,30.14,SSW,192,0.0,0.0,87,0.00,,---,0.00,0.00,VWS V14.00,2013-01-24 04:45:00,
2013-01-23 22:49:00,55.5,51.7,30.14,SSW,192,0.0,0.0,87,0.00,,---,0.00,0.00,VWS V14.00,2013-01-24 04:49:00,
2013-01-23 22:53:00,56.0,51.9,30.14,SSW,192,0.0,0.0,86,0.00,,---,0.00,0.00,VWS V14.00,2013-01-24 04:53:00,
2013-01-23 22:57:00,56.9,52.4,30.14,SSW,192,0.0,0.0,85,0.00,,---,0.00,0.00,VWS V14.00,2013-01-24 04:57:00,
2013-01-23 23:00:00,56.3,51.5,30.15,SSW,192,0.0,0.0,84,0.00,,---,0.00,0.00,VWS V14.00,2013-01-24 05:00:00,
2013-01-23 23:01:00,56.2,51.8,30.15,SSW,192,0.0,0.0,85,0.00,,---,0.00,0.00,VWS V14.00,2013-01-24 05:01:00,
2013-01-23 23:05:00,55.8,51.4,30.15,SSW,192,0.0,0.0,85,0.00,,---,0.00,0.00,VWS V14.00,2013-01-24 05:05:00,
2013-01-23 23:09:00,55.6,51.2,30.15,SSW,192,0.0,0.0,85,0.00,,---,0.00,0.00,VWS V14.00,2013-01-24 05:09:00,
2013-01-23 23:13:00,55.5,51.4,30.15,SSW,192,0.0,0.0,86,0.00,,---,0.00,0.00,VWS V14.00,2013-01-24 05:13:00,
2013-01-23 23:17:00,55.6,51.5,30.14,SSW,192,0.0,0.0,86,0.00,,---,0.00,0.00,VWS V14.00,2013-01-24 05:17:00,
2013-01-23 23:21:00,55.4,51.3,30.14,SSW,192,0.0,0.0,86,0.00,,---,0.00,0.00,VWS V14.00,2013-01-24 05:21:00,
2013-01-23 23:25:00,54.2,50.1,30.14,SSW,192,0.0,0.0,86,0.00,,---,0.00,0.00,VWS V14.00,2013-01-24 05:25:00,
2013-01-23 23:29:00,53.1,49.3,30.14,SSW,192,0.0,0.0,87,0.00,,---,0.00,0.00,VWS V14.00,2013-01-24 05:29:00,
2013-01-23 23:30:00,53.0,49.5,30.14,SSW,192,0.0,0.0,88,0.00,,---,0.00,0.00,VWS V14.00,2013-01-24 05:30:00,
2013-01-23 23:33:00,52.7,49.5,30.14,SSW,192,0.0,0.0,89,0.00,,---,0.00,0.00,VWS V14.00,2013-01-24 05:33:00,
2013-01-23 23:37:00,53.0,50.2,30.14,SSW,192,0.0,0.0,90,0.00,,---,0.00,0.00,VWS V14.00,2013-01-24 05:37:00,
2013-01-23 23:41:00,53.7,50.8,30.14,SSW,192,0.0,0.0,90,0.00,,---,0.00,0.00,VWS V14.00,2013-01-24 05:41:00,
2013-01-23 23:45:00,54.0,50.5,30.15,SSW,192,0.0,0.0,88,0.00,,---,0.00,0.00,VWS V14.00,2013-01-24 05:45:00,
2013-01-23 23:49:00,53.9,50.7,30.15,SSW,192,0.0,0.0,89,0.00,,---,0.00,0.00,VWS V14.00,2013-01-24 05:49:00,
2013-01-23 23:53:00,54.2,50.7,30.15,SSW,192,0.0,0.0,88,0.00,,---,0.00,0.00,VWS V14.00,2013-01-24 05:53:00,
2013-01-23 23:57:00,53.6,50.1,30.15,SSW,192,0.0,0.0,88,0.00,,---,0.00,0.00,VWS V14.00,2013-01-24 05:57:00,